FW5801 Weather Reports


Display with metric or nautical units.
time (UTC)temp
F
wind
direction
speed
MPH
gust
MPH
rain 1hr
in
rain 24hr
in
rain mn
in
humidity
%
barometer
mb
20260903151608 90 270 4.0 10.0 0.00 0.00 0.00 63 1017.5
20260903151057 90 270 5.0 10.0 0.00 0.00 0.00 64 1017.5
20260903150600 90 267 2.0 11.0 0.00 0.00 0.00 66 1017.5
20260903150111 89 345 5.0 11.0 0.00 0.00 0.00 65 1017.5
20260903145559 89 258 4.0 11.0 0.00 0.00 0.00 64 1017.5
20260903145056 89 269 4.0 10.0 0.00 0.00 0.00 66 1017.5
20260903144607 88 313 5.0 10.0 0.00 0.00 0.00 66 1017.6
20260903144058 88 274 5.0 9.0 0.00 0.00 0.00 66 1017.5
20260903143558 88 309 4.0 9.0 0.00 0.00 0.00 66 1017.5
20260903143112 88 273 5.0 10.0 0.00 0.00 0.00 67 1017.5
20260903142600 87 304 4.0 11.0 0.00 0.00 0.00 68 1017.6
20260903142056 87 262 4.0 11.0 0.00 0.00 0.00 69 1017.6
20260903141614 87 265 5.0 11.0 0.00 0.00 0.00 68 1017.5
20260903141057 87 277 3.0 9.0 0.00 0.00 0.00 70 1017.6
20260903140600 86 276 4.0 10.0 0.00 0.00 0.00 70 1017.6
20260903140107 86 286 5.0 10.0 0.00 0.00 0.00 70 1017.7
20260903135601 85 265 3.0 9.0 0.00 0.00 0.00 71 1017.7
20260903135100 85 279 4.0 9.0 0.00 0.00 0.00 71 1017.5
20260903134605 84 0 3.0 9.0 0.00 0.00 0.00 74 1017.6
20260903134100 84 280 4.0 10.0 0.00 0.00 0.00 74 1017.7
20260903133556 83 273 5.0 10.0 0.00 0.00 0.00 74 1017.7
20260903133111 83 261 4.0 10.0 0.00 0.00 0.00 76 1017.8
20260903132556 82 250 4.0 11.0 0.00 0.00 0.00 76 1017.7
20260903132059 82 250 4.0 11.0 0.00 0.00 0.00 77 1017.8
20260903131603 82 250 4.0 9.0 0.00 0.00 0.00 78 1017.8
20260903131100 81 257 3.0 9.0 0.00 0.00 0.00 78 1017.9
20260903130559 81 270 4.0 10.0 0.00 0.00 0.00 78 1018.0
20260903130105 80 265 4.0 10.0 0.00 0.00 0.00 80 1018.0
20260903125559 80 266 3.0 9.0 0.00 0.00 0.00 80 1018.0
20260903125100 79 255 4.0 9.0 0.00 0.00 0.00 81 1018.0
20260903124607 79 256 3.0 10.0 0.00 0.00 0.00 82 1018.2
20260903124056 78 266 4.0 10.0 0.00 0.00 0.00 82 1017.9
20260903123559 78 255 2.0 9.0 0.00 0.00 0.00 82 1018.0
20260903123105 77 271 1.0 9.0 0.00 0.00 0.00 83 1017.9
20260903122556 77 242 3.0 9.0 0.00 0.00 0.00 83 1018.1
20260903122056 77 227 3.0 8.0 0.00 0.00 0.00 84 1018.1
20260903121600 76 243 2.0 7.0 0.00 0.00 0.00 84 1018.1
20260903121056 76 281 3.0 7.0 0.00 0.00 0.00 84 1018.1
20260903120559 76 238 2.0 7.0 0.00 0.00 0.00 84 1018.1
20260903120107 76 263 3.0 6.0 0.00 0.00 0.00 84 1018.0
20260903115558 76 223 2.0 6.0 0.00 0.00 0.00 84 1018.1
20260903115059 76 260 3.0 6.0 0.00 0.00 0.00 84 1018.0
20260903114605 76 247 2.0 6.0 0.00 0.00 0.00 84 1017.9
20260903114056 75 244 2.0 7.0 0.00 0.00 0.00 85 1017.9
20260903113559 75 0 1.0 7.0 0.00 0.00 0.00 85 1017.8
20260903113102 75 248 0.0 4.0 0.00 0.00 0.00 85 1017.9
20260903112557 75 0 1.0 4.0 0.00 0.00 0.00 85 1017.8
20260903112100 75 267 1.0 3.0 0.00 0.00 0.00 85 1017.7
20260903111604 75 264 0.0 4.0 0.00 0.00 0.00 85 1017.5
20260903111059 75 259 1.0 5.0 0.00 0.00 0.00 85 1017.5
20260903110556 75 257 1.0 6.0 0.00 0.00 0.00 85 1017.4
20260903110103 75 241 1.0 7.0 0.00 0.00 0.00 85 1017.3
20260903105559 75 243 2.0 7.0 0.00 0.00 0.00 85 1017.4
20260903105059 75 288 2.0 8.0 0.00 0.00 0.00 85 1017.4
20260903104607 75 275 2.0 8.0 0.00 0.00 0.00 85 1017.3
20260903104056 75 273 2.0 9.0 0.00 0.00 0.00 85 1017.1
20260903103559 75 259 2.0 9.0 0.00 0.00 0.00 85 1017.3
20260903103103 75 284 2.0 7.0 0.00 0.00 0.00 85 1017.2
20260903102559 75 262 2.0 8.0 0.00 0.00 0.00 84 1017.2
20260903102056 75 286 2.0 8.0 0.00 0.00 0.00 84 1017.2
20260903101609 75 286 2.0 8.0 0.00 0.00 0.00 85 1017.1
20260903101104 75 235 2.0 8.0 0.00 0.00 0.00 85 1017.2
20260903100556 75 259 3.0 8.0 0.00 0.00 0.00 85 1017.1
20260903100109 75 263 2.0 8.0 0.00 0.00 0.00 85 1017.1
20260903095559 75 273 2.0 8.0 0.00 0.00 0.00 85 1017.2
20260903095056 75 282 3.0 8.0 0.00 0.00 0.00 85 1017.0
20260903094615 75 252 2.0 8.0 0.00 0.00 0.00 84 1017.0
20260903094056 75 241 1.0 7.0 0.00 0.00 0.00 84 1017.0
20260903093600 75 284 2.0 7.0 0.00 0.00 0.00 84 1017.1
20260903093115 76 273 2.0 7.0 0.00 0.00 0.00 84 1017.1
20260903092556 76 262 2.0 8.0 0.00 0.00 0.00 84 1017.0
20260903092100 76 0 2.0 8.0 0.00 0.00 0.00 84 1016.9
20260903091607 75 252 2.0 7.0 0.00 0.00 0.00 84 1016.8
20260903091059 75 247 3.0 8.0 0.00 0.00 0.00 85 1017.0
20260903090556 75 246 2.0 8.0 0.00 0.00 0.00 85 1016.9
20260903090107 75 226 2.0 8.0 0.00 0.00 0.00 85 1017.0
20260903085556 75 250 2.0 5.0 0.00 0.00 0.00 85 1017.0
20260903085059 75 264 1.0 4.0 0.00 0.00 0.00 85 1017.0
20260903084602 75 267 0.0 3.0 0.00 0.00 0.00 85 1017.1
20260903084100 75 274 1.0 4.0 0.00 0.00 0.00 85 1017.0
20260903083600 75 272 1.0 6.0 0.00 0.00 0.00 85 1016.9
20260903083100 75 258 1.0 6.0 0.00 0.00 0.00 85 1017.1
20260903082559 75 257 1.0 6.0 0.00 0.00 0.00 84 1016.9
20260903082059 75 246 1.0 6.0 0.00 0.00 0.00 84 1017.0
20260903081605 75 257 2.0 6.0 0.00 0.00 0.00 84 1017.0
20260903081102 76 258 2.0 6.0 0.00 0.00 0.00 84 1016.9
20260903080556 76 248 2.0 7.0 0.00 0.00 0.00 84 1016.9
20260903080110 76 244 3.0 7.0 0.00 0.00 0.00 84 1017.0
20260903075600 76 241 1.0 7.0 0.00 0.00 0.00 84 1017.0
20260903075059 76 258 3.0 7.0 0.00 0.00 0.00 84 1017.0
20260903074600 76 265 2.0 6.0 0.00 0.00 0.00 84 1016.9
20260903074059 76 259 2.0 6.0 0.00 0.00 0.00 84 1017.0
20260903073559 76 255 1.0 6.0 0.00 0.00 0.00 84 1017.1
20260903073107 76 271 2.0 6.0 0.00 0.00 0.00 84 1017.0
20260903072557 76 248 2.0 7.0 0.00 0.00 0.00 84 1017.0
20260903072057 76 269 2.0 7.0 0.00 0.00 0.00 84 1017.1
20260903071610 76 252 0.0 4.0 0.00 0.00 0.00 84 1017.0
20260903071056 76 263 1.0 4.0 0.00 0.00 0.00 84 1017.0
20260903070556 76 254 1.0 4.0 0.00 0.00 0.00 83 1017.1
20260903070107 76 0 1.0 4.0 0.00 0.00 0.00 83 1017.0
20260903065600 76 0 0.0 4.0 0.00 0.00 0.00 83 1017.1
20260903065056 76 281 1.0 4.0 0.00 0.00 0.00 83 1017.0
20260903064603 77 271 0.0 6.0 0.00 0.00 0.00 82 1017.0
20260903064056 77 269 1.0 6.0 0.00 0.00 0.00 82 1017.2
20260903063559 77 257 1.0 4.0 0.00 0.00 0.00 82 1017.1
20260903063127 77 0 1.0 4.0 0.00 0.00 0.00 82 1017.1
20260903062557 77 0 1.0 5.0 0.00 0.00 0.00 81 1017.1
20260903062059 77 279 0.0 6.0 0.00 0.00 0.00 81 1017.0
20260903061605 78 0 1.0 8.0 0.00 0.00 0.00 81 1017.1
20260903061057 78 0 2.0 8.0 0.00 0.00 0.00 81 1017.2
20260903060556 78 265 2.0 8.0 0.00 0.00 0.00 80 1017.1
20260903060118 78 255 3.0 8.0 0.00 0.00 0.00 80 1017.0
20260903055556 78 227 3.0 8.0 0.00 0.00 0.00 80 1017.0
20260903055059 78 259 3.0 8.0 0.00 0.00 0.00 80 1016.9
20260903054603 78 238 3.0 8.0 0.00 0.00 0.00 80 1017.1
20260903054056 78 254 3.0 9.0 0.00 0.00 0.00 80 1017.0
20260903053600 78 234 2.0 10.0 0.00 0.00 0.00 80 1016.8
20260903053105 78 233 3.0 10.0 0.00 0.00 0.00 80 1016.9
20260903052557 78 205 2.0 8.0 0.00 0.00 0.00 80 1017.0
20260903052057 78 219 3.0 8.0 0.00 0.00 0.00 80 1016.9
20260903051608 79 223 2.0 7.0 0.00 0.00 0.00 79 1016.7
20260903051057 79 242 2.0 8.0 0.00 0.00 0.00 79 1016.7
20260903050556 79 251 2.0 9.0 0.00 0.00 0.00 79 1016.6
20260903050128 79 245 2.0 9.0 0.00 0.00 0.00 79 1016.7
20260903045600 79 245 3.0 9.0 0.00 0.00 0.00 79 1016.7
20260903045100 79 234 3.0 8.0 0.00 0.00 0.00 79 1016.6
20260903044606 79 267 3.0 8.0 0.00 0.00 0.00 79 1016.5
20260903044058 79 0 3.0 8.0 0.00 0.00 0.00 79 1016.5
20260903043557 79 239 3.0 7.0 0.00 0.00 0.00 79 1016.4
20260903043103 79 218 3.0 7.0 0.00 0.00 0.00 78 1016.5
20260903042556 79 263 3.0 7.0 0.00 0.00 0.00 78 1016.4
20260903042056 79 250 2.0 7.0 0.00 0.00 0.00 78 1016.4
20260903041601 79 235 2.0 6.0 0.00 0.00 0.00 78 1016.3
20260903041056 79 250 2.0 6.0 0.00 0.00 0.00 78 1016.4
20260903040559 80 240 1.0 7.0 0.00 0.00 0.00 78 1016.4
20260903040105 80 227 3.0 7.0 0.00 0.00 0.00 78 1016.4
20260903035556 80 246 2.0 6.0 0.00 0.00 0.00 78 1016.5
20260903035057 80 240 2.0 7.0 0.00 0.00 0.00 78 1016.5
20260903034601 80 242 2.0 7.0 0.00 0.00 0.00 78 1016.6
20260903034057 80 250 2.0 7.0 0.00 0.00 0.00 78 1016.6
20260903033556 80 221 1.0 5.0 0.00 0.00 0.00 78 1016.6
20260903033103 80 0 1.0 5.0 0.00 0.00 0.00 78 1016.6
20260903032600 80 226 1.0 5.0 0.00 0.00 0.00 78 1016.6
20260903032101 80 0 0.0 5.0 0.00 0.00 0.00 78 1016.7
20260903031601 80 0 0.0 5.0 0.00 0.00 0.00 77 1016.7
20260903031104 80 227 1.0 4.0 0.00 0.00 0.00 77 1016.6
20260903030600 81 0 0.0 5.0 0.00 0.00 0.00 77 1016.8
20260903030108 81 0 1.0 5.0 0.00 0.00 0.00 77 1016.7
20260903025600 81 245 0.0 2.0 0.00 0.00 0.00 76 1016.8
20260903025103 81 0 0.0 3.0 0.00 0.00 0.00 76 1016.8
20260903024604 81 0 0.0 3.0 0.00 0.00 0.00 76 1016.8
20260903024100 81 0 0.0 4.0 0.00 0.00 0.00 75 1016.9
20260903023600 81 0 1.0 4.0 0.00 0.00 0.00 75 1017.1
20260903023102 82 230 1.0 4.0 0.00 0.00 0.00 74 1017.0
20260903022600 82 0 0.0 4.0 0.00 0.00 0.00 74 1017.0
20260903022100 82 0 0.0 4.0 0.00 0.00 0.00 74 1017.1
20260903021605 82 252 1.0 5.0 0.00 0.00 0.00 74 1017.1
20260903021101 82 270 1.0 5.0 0.00 0.00 0.00 74 1017.0
20260903020600 82 0 2.0 5.0 0.00 0.00 0.00 74 1017.0
20260903020106 82 236 2.0 5.0 0.00 0.00 0.00 74 1017.1
20260903015601 82 222 1.0 4.0 0.00 0.00 0.00 73 1017.1
20260903015103 82 232 0.0 4.0 0.00 0.00 0.00 73 1017.0
20260903014607 82 233 2.0 4.0 0.00 0.00 0.00 73 1016.9
20260903014100 82 236 0.0 6.0 0.00 0.00 0.00 73 1016.9
20260903013600 83 234 1.0 6.0 0.00 0.00 0.00 73 1016.9
20260903013102 83 239 1.0 4.0 0.00 0.00 0.00 73 1016.9
20260903012600 83 258 0.0 4.0 0.00 0.00 0.00 72 1016.8
20260903012100 83 0 1.0 4.0 0.00 0.00 0.00 72 1016.8
20260903011620 83 0 2.0 6.0 0.00 0.00 0.00 72 1016.8
20260903011100 83 253 2.0 6.0 0.00 0.00 0.00 72 1016.8
20260903010558 83 265 2.0 6.0 0.00 0.00 0.00 72 1016.7
20260903010108 83 217 2.0 6.0 0.00 0.00 0.00 72 1016.7
20260903005601 84 222 3.0 6.0 0.00 0.00 0.00 72 1016.7
20260903005100 84 257 2.0 8.0 0.00 0.00 0.00 72 1016.6
20260903004609 84 238 2.0 8.0 0.00 0.00 0.00 71 1016.7
20260903004100 84 258 3.0 8.0 0.00 0.00 0.00 72 1016.6
20260903003604 84 243 1.0 5.0 0.00 0.00 0.00 71 1016.6
20260903003105 84 227 2.0 5.0 0.00 0.00 0.00 71 1016.5
20260903002600 85 223 3.0 5.0 0.00 0.00 0.00 71 1016.6
20260903002058 85 228 2.0 5.0 0.00 0.00 0.00 70 1016.5
20260903001607 85 244 2.0 5.0 0.00 0.00 0.00 70 1016.5
20260903001057 86 230 2.0 6.0 0.00 0.00 0.00 69 1016.5
20260903000557 86 236 2.0 6.0 0.00 0.00 0.00 69 1016.6
20260903000108 86 0 1.0 6.0 0.00 0.00 0.00 68 1016.5
20260902235556 86 215 2.0 9.0 0.00 0.00 0.00 68 1016.6
20260902235056 87 239 3.0 9.0 0.00 0.00 0.00 67 1016.4
20260902234606 87 217 2.0 8.0 0.00 0.00 0.00 66 1016.3
20260902234056 87 213 3.0 6.0 0.00 0.00 0.00 66 1016.2
20260902233556 88 253 2.0 7.0 0.00 0.00 0.00 65 1016.2
20260902233104 88 244 3.0 8.0 0.00 0.00 0.00 65 1016.3
20260902232558 88 229 3.0 8.0 0.00 0.00 0.00 64 1016.2
20260902232057 89 263 3.0 8.0 0.00 0.00 0.00 63 1016.1
20260902231610 89 216 2.0 8.0 0.00 0.00 0.00 63 1016.0
20260902231057 89 235 4.0 8.0 0.00 0.00 0.00 62 1016.1
20260902230556 89 232 3.0 9.0 0.00 0.00 0.00 62 1016.2
20260902230107 90 250 3.0 9.0 0.00 0.00 0.00 61 1016.3
20260902225557 90 246 4.0 9.0 0.00 0.00 0.00 60 1016.3
20260902225057 90 246 3.0 8.0 0.00 0.00 0.00 59 1016.3
20260902224604 91 257 3.0 9.0 0.00 0.00 0.00 59 1016.3
20260902224056 91 260 2.0 9.0 0.00 0.00 0.00 58 1016.3
20260902223556 91 250 3.0 10.0 0.00 0.00 0.00 57 1016.3
20260902223108 92 209 3.0 10.0 0.00 0.00 0.00 57 1016.3
20260902222556 92 261 3.0 9.0 0.00 0.00 0.00 57 1016.3
20260902222056 92 0 3.0 8.0 0.00 0.00 0.00 57 1016.2
20260902221609 92 219 3.0 10.0 0.00 0.00 0.00 56 1016.3
20260902221057 92 0 3.0 10.0 0.00 0.00 0.00 56 1016.3
20260902220557 92 237 5.0 10.0 0.00 0.00 0.00 55 1016.3
20260902220112 93 244 5.0 10.0 0.00 0.00 0.00 54 1016.5
20260902215556 93 269 3.0 9.0 0.00 0.00 0.00 55 1016.3
20260902215056 93 238 4.0 13.0 0.00 0.00 0.00 54 1016.4
20260902214602 93 262 4.0 13.0 0.00 0.00 0.00 53 1016.5
20260902214100 93 250 6.0 14.0 0.00 0.00 0.00 53 1016.3
20260902213557 93 275 4.0 14.0 0.00 0.00 0.00 54 1016.5
20260902213107 93 219 6.0 14.0 0.00 0.00 0.00 54 1016.4
20260902212559 93 279 6.0 13.0 0.00 0.00 0.00 55 1016.4
20260902212057 93 257 7.0 13.0 0.00 0.00 0.00 54 1016.5
20260902211604 93 281 6.0 13.0 0.00 0.00 0.00 53 1016.5
20260902211100 93 276 7.0 15.0 0.00 0.00 0.00 53 1016.5
20260902210600 93 241 6.0 15.0 0.00 0.00 0.00 54 1016.5
20260902210103 93 232 6.0 12.0 0.00 0.00 0.00 54 1016.6
20260902205601 94 257 5.0 10.0 0.00 0.00 0.00 53 1016.7
20260902205100 93 203 6.0 12.0 0.00 0.00 0.00 53 1016.6
20260902204608 94 257 6.0 12.0 0.00 0.00 0.00 53 1016.7
20260902204101 94 277 5.0 16.0 0.00 0.00 0.00 53 1016.9
20260902203559 93 216 6.0 16.0 0.00 0.00 0.00 52 1016.9
20260902203107 94 251 8.0 16.0 0.00 0.00 0.00 50 1017.0
20260902202604 94 262 7.0 14.0 0.00 0.00 0.00 52 1017.1
20260902202057 94 269 5.0 12.0 0.00 0.00 0.00 54 1017.1
20260902201606 94 246 6.0 12.0 0.00 0.00 0.00 54 1017.2
20260902201059 94 267 5.0 12.0 0.00 0.00 0.00 55 1017.3
20260902200557 93 275 6.0 13.0 0.00 0.00 0.00 55 1017.2
20260902200119 93 252 7.0 13.0 0.00 0.00 0.00 57 1017.2
20260902195557 94 253 7.0 13.0 0.00 0.00 0.00 55 1017.3
20260902195100 94 265 6.0 13.0 0.00 0.00 0.00 55 1017.4
20260902194607 94 265 5.0 13.0 0.00 0.00 0.00 57 1017.4
20260902194059 93 287 6.0 15.0 0.00 0.00 0.00 56 1017.4
20260902193559 93 196 5.0 16.0 0.00 0.00 0.00 55 1017.4
20260902193107 93 204 7.0 16.0 0.00 0.00 0.00 54 1017.5
20260902192602 93 193 7.0 17.0 0.00 0.00 0.00 53 1017.5
20260902192104 93 191 8.0 17.0 0.00 0.00 0.00 54 1017.6
20260902191604 93 265 8.0 15.0 0.00 0.00 0.00 53 1017.5
20260902191059 94 194 7.0 15.0 0.00 0.00 0.00 55 1017.7
20260902190559 94 250 7.0 14.0 0.00 0.00 0.00 55 1017.8
20260902190104 94 261 5.0 10.0 0.00 0.00 0.00 54 1017.8
20260902185557 94 270 3.0 12.0 0.00 0.00 0.00 56 1017.9
20260902185057 94 287 7.0 12.0 0.00 0.00 0.00 54 1017.8
20260902184658 94 252 6.0 12.0 0.00 0.00 0.00 54 1017.9
20260902184059 94 203 8.0 12.0 0.00 0.00 0.00 55 1017.9
20260902183601 94 276 4.0 11.0 0.00 0.00 0.00 54 1017.9
20260902183108 94 228 5.0 12.0 0.00 0.00 0.00 53 1018.0
20260902182600 94 251 7.0 13.0 0.00 0.00 0.00 53 1018.1
20260902182100 94 253 8.0 13.0 0.00 0.00 0.00 54 1018.2
20260902181604 94 212 4.0 13.0 0.00 0.00 0.00 54 1018.1
20260902181101 94 235 6.0 13.0 0.00 0.00 0.00 55 1018.0
20260902180600 94 258 2.0 10.0 0.00 0.00 0.00 55 1018.2
20260902180133 94 237 3.0 12.0 0.00 0.00 0.00 55 1018.2
20260902175600 94 282 6.0 12.0 0.00 0.00 0.00 55 1018.3
20260902175100 93 267 6.0 13.0 0.00 0.00 0.00 57 1018.3
20260902174615 94 287 7.0 13.0 0.00 0.00 0.00 53 1018.3
20260902174102 94 261 7.0 12.0 0.00 0.00 0.00 54 1018.6
20260902173557 94 298 5.0 11.0 0.00 0.00 0.00 55 1018.6
20260902173105 94 289 5.0 12.0 0.00 0.00 0.00 57 1018.8
20260902172602 93 311 5.0 12.0 0.00 0.00 0.00 56 1018.8
20260902172057 93 246 4.0 9.0 0.00 0.00 0.00 58 1018.6
20260902171626 93 260 5.0 9.0 0.00 0.00 0.00 59 1018.7
20260902171058 94 188 2.0 11.0 0.00 0.00 0.00 60 1018.7
20260902170600 93 229 3.0 13.0 0.00 0.00 0.00 57 1018.7
20260902170104 93 258 5.0 13.0 0.00 0.00 0.00 57 1018.7
20260902165602 92 281 4.0 11.0 0.00 0.00 0.00 60 1018.9
20260902165100 92 237 5.0 11.0 0.00 0.00 0.00 58 1018.9
20260902164621 92 217 6.0 11.0 0.00 0.00 0.00 59 1018.9
20260902164057 92 219 5.0 10.0 0.00 0.00 0.00 58 1018.8
20260902163600 92 302 4.0 9.0 0.00 0.00 0.00 61 1018.8
20260902163106 92 281 4.0 10.0 0.00 0.00 0.00 58 1018.9
20260902162556 92 226 4.0 10.0 0.00 0.00 0.00 59 1018.9
20260902162059 92 283 4.0 10.0 0.00 0.00 0.00 62 1018.9
20260902161612 92 248 5.0 10.0 0.00 0.00 0.00 60 1018.9
20260902161056 92 240 3.0 8.0 0.00 0.00 0.00 59 1018.8
20260902160601 92 271 2.0 9.0 0.00 0.00 0.00 59 1018.8
20260902160111 92 330 3.0 11.0 0.00 0.00 0.00 60 1018.9
20260902155557 92 342 5.0 11.0 0.00 0.00 0.00 60 1019.0
20260902155100 91 259 2.0 11.0 0.00 0.00 0.00 62 1019.0
20260902154605 91 268 6.0 11.0 0.00 0.00 0.00 60 1019.1
20260902154059 91 264 4.0 9.0 0.00 0.00 0.00 63 1019.1
20260902153600 90 288 3.0 9.0 0.00 0.00 0.00 64 1019.1
20260902153105 90 244 5.0 9.0 0.00 0.00 0.00 62 1019.1
20260902152601 90 264 4.0 9.0 0.00 0.00 0.00 63 1019.1
20260902152100 90 297 2.0 10.0 0.00 0.00 0.00 63 1019.1